Location: Antioch Church
(34.9543°N, 88.5145°W)
Time: 12:55:51
(UTC+00:00)

CZ-4C R/B - Pass Details

Date: 11 December 2019
Orbit: 647 x 1355 km, 63.4° (Epoch: 16 January)

Event Time Altitude Azimuth Distance (km) Brightness Sun altitude
Exits shadow 09:37:12 46° 42° (NE) 1,639 3.7 -39.0°
Maximum altitude 09:37:46 46° 53° (NE) 1,635 3.7 -38.9°
Drops below altitude 10° 09:45:40 10° 125° (SE) 3,375 5.9 -37.2°
Sets 09:48:47 0° 131° (SE) 4,367 6.5 -36.6°
